Zurück zum Katalog

STARLINK-30793

AktivKommunikationVLEO
NORAD 58185·PAYLOAD·🇺🇸 United States

Gestartet Oct 30, 2023 von Cape Canaveral Space Force Station

Loading…

Nächste Überflüge (nächste 24 Stunden)

TLE

AktuellSource: CelesTrak SupGP

Epoche: Sep 15, 2026, 02:05 UTC

1 58185C 23167L   26258.08729167  .00051707  00000+0  18728-2 0  2584
2 58185  43.0028 153.7821 0001447 261.4610   2.8394 15.27554031    19

Verfolge STARLINK-30793 in Echtzeit mit AllMySat

Download on the App Store